This is the latest recevied weather packets stored in our database for station/object KB1RMA-4. If no packets are shown the sender has not sent any weather packets the latest 10 day(s).
| Time | Temp. | Humidity | Pressure | Rain* | Wind** | Luminosity | Snow |
|---|---|---|---|---|---|---|---|
| 1788611261 | 18.33° C | 77% | 1009.7 hPa | 0 mm | - | 123 W/m² | - |
| 1788610960 | 18.33° C | 78% | 1009.7 hPa | 0 mm | - | 90 W/m² | - |
| 1788610655 | 18.33° C | 78% | 1009.7 hPa | 0 mm | - | 70 W/m² | - |
| 1788610352 | 18.33° C | 79% | 1009.6 hPa | 0 mm | - | 55 W/m² | - |
| 1788610051 | 18.33° C | 79% | 1009.6 hPa | 0 mm | - | 55 W/m² | - |
| 1788609751 | 17.78° C | 79% | 1009.8 hPa | 0 mm | - | 59 W/m² | - |
| 1788609446 | 17.78° C | 79% | 1009.5 hPa | 0 mm | - | 45 W/m² | - |
| 1788609145 | 17.78° C | 78% | 1009.6 hPa | 0 mm | - | 31 W/m² | - |
| 1788608840 | 17.78° C | 78% | 1009.5 hPa | 0 mm | - | 30 W/m² | - |
| 1788608539 | 17.78° C | 78% | 1009.6 hPa | 0 mm | - | 31 W/m² | - |
| 1788608238 | 17.78° C | 78% | 1009.4 hPa | 0 mm | - | 29 W/m² | - |
| 1788607934 | 17.78° C | 78% | 1009.5 hPa | 0 mm | - | 26 W/m² | - |
| 1788607660 | 17.78° C | 78% | 1009.2 hPa | 0 mm | - | 28 W/m² | - |
| 1788607330 | 17.78° C | 78% | 1009.2 hPa | 0 mm | - | 26 W/m² | - |
| 1788607029 | 17.78° C | 78% | 1009.2 hPa | 0 mm | - | 22 W/m² | - |
| 1788606729 | 17.78° C | 78% | 1009.2 hPa | 0 mm | - | 10 W/m² | - |
| 1788606428 | 17.78° C | 78% | 1009.1 hPa | 0 mm | - | 6 W/m² | - |
| 1788606123 | 17.78° C | 78% | 1009.1 hPa | 0 mm | - | 6 W/m² | - |
| 1788605819 | 17.78° C | 78% | 1008.9 hPa | 0 mm | - | 6 W/m² | - |
| 1788605517 | 17.78° C | 78% | 1008.9 hPa | 0 mm | - | 9 W/m² | - |
| 1788605212 | 17.78° C | 78% | 1009.1 hPa | 0 mm | - | 10 W/m² | - |
| 1788604908 | 17.78° C | 78% | 1008.9 hPa | 0 mm | - | 12 W/m² | - |
| 1788604603 | 17.78° C | 78% | 1008.9 hPa | 0 mm | - | 10 W/m² | - |
| 1788604299 | 17.22° C | 79% | 1008.7 hPa | 0 mm | - | 8 W/m² | - |
| 1788603995 | 17.22° C | 79% | 1008.8 hPa | 0 mm | - | 7 W/m² | - |
* Rain latest hour (hover to see other rain measurements)
** Current wind speed in m/s (hover to see current wind gust speed)